DLH29L EDDF-EDDS

Flight info

Callsign DLH29L
Flight time 0h 20m
Altitude 15000
Route ANEKI2L/18 ANEKI Y163 NEKLO Y171 INKAM N850 KRH T128 BADSO BADSO2A
Aircraft A321/M-SDE3FGHIRWY/LB1

Departure

Time 2026-05-04 17:15
Airport Frankfurt Main Airport (EDDF)

Arrival

Time 2026-05-04 17:36
Airport Stuttgart Airport (EDDS)
Time Latitude Longitude Altitude Speed Heading
2026-05-04 16:43 50.04393 8.56166 356 ft 0 kts 155°
2026-05-04 17:05 50.04423 8.56149 359 ft 4 kts 172°
2026-05-04 17:06 50.04465 8.56169 363 ft 1 kts 250°
2026-05-04 17:06 50.04466 8.56175 363 ft 0 kts 250°
2026-05-04 17:09 50.04464 8.56166 356 ft 3 kts 250°
2026-05-04 17:09 50.04452 8.56114 364 ft 7 kts 251°
2026-05-04 17:10 50.04335 8.56061 360 ft 13 kts 161°
2026-05-04 17:10 50.04167 8.55633 358 ft 20 kts 250°
2026-05-04 17:11 50.04116 8.55426 356 ft 21 kts 249°
2026-05-04 17:11 50.04065 8.55217 360 ft 21 kts 250°
2026-05-04 17:11 50.03962 8.54775 353 ft 24 kts 249°
2026-05-04 17:12 50.03906 8.54541 356 ft 23 kts 250°
2026-05-04 17:12 50.03761 8.54061 351 ft 26 kts 249°
2026-05-04 17:13 50.03563 8.53246 337 ft 28 kts 249°
2026-05-04 17:14 50.03375 8.52611 335 ft 20 kts 208°
2026-05-04 17:14 50.03219 8.52597 335 ft 40 kts 179°
2026-05-04 17:14 50.01690 8.52611 333 ft 170 kts 179°
2026-05-04 17:15 50.00422 8.52628 731 ft 186 kts 180°
2026-05-04 17:15 49.97787 8.52724 2030 ft 199 kts 179°
2026-05-04 17:16 49.94749 8.52918 2556 ft 239 kts 179°
2026-05-04 17:16 49.89804 8.53225 5048 ft 233 kts 177°
2026-05-04 17:17 49.88186 8.53371 5814 ft 233 kts 177°
2026-05-04 17:17 49.83324 8.53774 8045 ft 234 kts 178°
2026-05-04 17:18 49.81690 8.53898 8764 ft 236 kts 179°
2026-05-04 17:18 49.78380 8.54129 10157 ft 240 kts 181°
2026-05-04 17:19 49.74829 8.53718 10663 ft 278 kts 187°
2026-05-04 17:19 49.70671 8.53148 10921 ft 321 kts 186°
2026-05-04 17:20 49.66011 8.52528 11379 ft 350 kts 186°
2026-05-04 17:20 49.61091 8.51884 12447 ft 359 kts 186°
2026-05-04 17:20 49.58586 8.51560 12868 ft 362 kts 186°
2026-05-04 17:21 49.53562 8.50904 12975 ft 362 kts 186°
2026-05-04 17:21 49.48537 8.50241 12974 ft 362 kts 186°
2026-05-04 17:22 49.46026 8.49911 12978 ft 362 kts 186°
2026-05-04 17:22 49.43523 8.49586 12974 ft 362 kts 186°
2026-05-04 17:23 49.36210 8.52084 12977 ft 368 kts 158°
2026-05-04 17:23 49.33870 8.53681 12974 ft 369 kts 158°
2026-05-04 17:23 49.29190 8.56894 12979 ft 368 kts 158°
2026-05-04 17:24 49.26850 8.58495 12975 ft 368 kts 158°
2026-05-04 17:24 49.19820 8.63262 12976 ft 368 kts 158°
2026-05-04 17:25 49.17476 8.64851 12977 ft 369 kts 158°
2026-05-04 17:25 49.12804 8.68015 12980 ft 369 kts 158°
2026-05-04 17:26 49.08096 8.71185 12983 ft 370 kts 158°
2026-05-04 17:26 49.01399 8.75700 12294 ft 318 kts 158°
2026-05-04 17:27 48.97629 8.78244 11793 ft 288 kts 159°
2026-05-04 17:27 48.94011 8.80664 11299 ft 280 kts 158°
2026-05-04 17:28 48.90599 8.82952 11077 ft 254 kts 158°
2026-05-04 17:29 48.85972 8.86035 9981 ft 234 kts 158°
2026-05-04 17:29 48.81587 8.88954 8446 ft 228 kts 158°
2026-05-04 17:30 48.77282 8.91819 7010 ft 223 kts 158°
2026-05-04 17:31 48.74460 8.93702 6080 ft 220 kts 158°
2026-05-04 17:31 48.70264 8.96485 4632 ft 218 kts 156°
2026-05-04 17:32 48.67556 8.98350 3952 ft 217 kts 147°
2026-05-04 17:33 48.65641 9.04471 3414 ft 207 kts 79°
2026-05-04 17:33 48.65982 9.06465 3202 ft 185 kts 71°
2026-05-04 17:34 48.67020 9.11879 2459 ft 160 kts 71°
2026-05-04 17:34 48.67324 9.13459 2241 ft 154 kts 71°
2026-05-04 17:35 48.68199 9.18067 1648 ft 152 kts 69°
2026-05-04 17:35 48.68782 9.21139 1290 ft 149 kts 71°
2026-05-04 17:35 48.69048 9.22497 1285 ft 101 kts 74°
2026-05-04 17:36 48.69160 9.23113 1285 ft 32 kts 74°
2026-05-04 17:36 48.69220 9.23399 1286 ft 23 kts 62°
2026-05-04 17:36 48.69299 9.23570 1285 ft 16 kts 47°
2026-05-04 17:36 48.69379 9.23694 1288 ft 16 kts 43°
2026-05-04 17:37 48.69464 9.23740 1285 ft 13 kts 349°
2026-05-04 17:37 48.69517 9.23639 1285 ft 13 kts 272°
2026-05-04 17:37 48.69496 9.23495 1285 ft 15 kts 256°
2026-05-04 17:37 48.69466 9.23340 1285 ft 16 kts 252°
2026-05-04 17:38 48.69433 9.23174 1289 ft 17 kts 254°
2026-05-04 17:38 48.69400 9.22995 1285 ft 18 kts 253°
2026-05-04 17:38 48.69365 9.22811 1285 ft 18 kts 254°
2026-05-04 17:38 48.69331 9.22624 1288 ft 19 kts 254°
2026-05-04 17:39 48.69255 9.22221 1285 ft 21 kts 254°
2026-05-04 17:39 48.69214 9.22007 1287 ft 22 kts 253°
2026-05-04 17:39 48.69173 9.21794 1289 ft 20 kts 253°
2026-05-04 17:40 48.69134 9.21592 1289 ft 20 kts 254°
2026-05-04 17:40 48.69095 9.21382 1285 ft 21 kts 254°
2026-05-04 17:40 48.69056 9.21177 1286 ft 18 kts 254°
2026-05-04 17:40 48.69020 9.20991 1285 ft 19 kts 254°
2026-05-04 17:41 48.68983 9.20796 1287 ft 20 kts 253°
2026-05-04 17:41 48.68944 9.20588 1287 ft 21 kts 255°
2026-05-04 17:41 48.68904 9.20377 1285 ft 21 kts 252°
2026-05-04 17:41 48.68864 9.20166 1285 ft 20 kts 254°
2026-05-04 17:42 48.68828 9.20007 1288 ft 13 kts 242°
2026-05-04 17:42 48.68837 9.19905 1287 ft 10 kts 327°
2026-05-04 17:42 48.68885 9.19855 1287 ft 7 kts 303°
2026-05-04 17:42 48.68886 9.19799 1285 ft 4 kts 258°
2026-05-04 17:43 48.68874 9.19735 1288 ft 9 kts 254°
2026-05-04 17:43 48.68853 9.19626 1285 ft 11 kts 254°
2026-05-04 17:43 48.68834 9.19524 1285 ft 9 kts 254°
2026-05-04 17:43 48.68842 9.19458 1285 ft 6 kts 321°
2026-05-04 17:44 48.68871 9.19441 1286 ft 4 kts 343°
2026-05-04 17:44 48.68882 9.19436 1288 ft 2 kts 343°
2026-05-04 17:44 48.68887 9.19434 1287 ft 0 kts 343°
2026-05-04 17:44 48.68890 9.19432 1290 ft 0 kts 343°